Weather History for KSBM - August, 2013

Change the Weather History Date:

Saturday, August 24, 2013

  Actual Average Record
Temperature  
Mean Temperature 64 °F -  
Max Temperature 81 °F 77 °F 95 °F (1954)
Min Temperature 48 °F 59 °F 48 °F (2005)
Degree Days  
Heating Degree Days 1    
Growing Degree Days 14 (Base 50)    
Moisture  
Dew Point 57 °F    
Average Humidity 79    
Maximum Humidity 100    
Minimum Humidity 44    
Precipitation  
Precipitation 0.00 in - - ()
Sea Level Pressure  
Sea Level Pressure 30.23 in    
Wind  
Wind Speed 3 mph (South)    
Max Wind Speed 15 mph    
Max Gust Speed 18 mph    
Visibility 9 miles    
Events      
Averages and records for this station are not official NWS values.
T = Trace of Precipitation, MM = Missing Value Source: NWS Daily Summary

Daily Weather History Graph

Daily Weather History Graph

Search for Another Location

Airport or City:

Trip Planner

Search our weather history database for the weather conditions in past years. The results will help you decide how hot, cold, wet, or windy it might be!

Date:

Astronomy

Aug. 24, 2013 Rise Set
Actual Time 6:06 AM CDT 7:40 PM CDT
Civil Twilight 5:35 AM CDT 8:10 PM CDT
Nautical Twilight 4:59 AM CDT 8:46 PM CDT
Astronomical Twilight 4:19 AM CDT 9:26 PM CDT
Moon 9:23 PM CDT (8/24) 10:15 AM CDT (8/24)
Length of Visible Light 14h 34m
Length of Day
13h 34m
Waning Gibbous, 84% of the Moon is Illuminated
Aug 24
Waning Gibbous
Aug 28
Last Quarter
Sep 5
New
Sep 12
First Quarter
Sep 19
Full

Hourly Weather History & Observations

Time (CDT) Temp. Heat Index Dew Point Humidity Pressure Visibility Wind Dir Wind Speed Gust Speed Precip Events Conditions
12:53 AM 54.0 °F - 54.0 °F 100% 30.21 in 10.0 mi Calm Calm - N/A   Clear
1:53 AM 53.1 °F - 52.0 °F 96% 30.20 in 10.0 mi Calm Calm - N/A   Clear
2:53 AM 52.0 °F - 52.0 °F 100% 30.22 in 8.0 mi Calm Calm - N/A   Clear
3:53 AM 52.0 °F - 51.1 °F 97% 30.22 in 9.0 mi Calm Calm - N/A   Clear
4:27 AM 51.8 °F - 51.8 °F 100% 30.24 in 1.8 mi Calm Calm - N/A   Clear
4:38 AM 50.0 °F - 50.0 °F 100% 30.24 in 4.0 mi Calm Calm - N/A   Clear
4:53 AM 48.9 °F - 48.9 °F 100% 30.25 in 3.0 mi Calm Calm - N/A   Clear
5:53 AM 51.1 °F - 51.1 °F 100% 30.25 in 9.0 mi Calm Calm - N/A   Clear
6:15 AM 50.0 °F - 50.0 °F 100% 30.26 in 2.0 mi Calm Calm - N/A   Clear
6:25 AM 50.0 °F - 50.0 °F 100% 30.26 in 8.0 mi Calm Calm - N/A   Clear
6:53 AM 51.1 °F - 51.1 °F 100% 30.27 in 9.0 mi Calm Calm - N/A   Clear
7:53 AM 61.0 °F - 60.1 °F 97% 30.27 in 10.0 mi Calm Calm - N/A   Clear
8:53 AM 70.0 °F - 62.1 °F 76% 30.27 in 10.0 mi South 5.8 mph - N/A   Clear
9:53 AM 73.9 °F - 60.1 °F 62% 30.27 in 10.0 mi South 10.4 mph - N/A   Clear
10:53 AM 77.0 °F - 59.0 °F 54% 30.27 in 10.0 mi South 9.2 mph - N/A   Clear
11:53 AM 79.0 °F - 55.0 °F 44% 30.26 in 10.0 mi SSW 15.0 mph - N/A   Clear
12:53 PM 79.0 °F - 57.9 °F 48% 30.26 in 10.0 mi South 11.5 mph 17.3 mph N/A   Clear
1:53 PM 80.1 °F 80.7 °F 59.0 °F 48% 30.25 in 10.0 mi SSE 8.1 mph 16.1 mph N/A   Clear
2:53 PM 79.0 °F - 57.0 °F 47% 30.23 in 10.0 mi SSE 10.4 mph - N/A   Clear
3:53 PM 79.0 °F - 57.0 °F 47% 30.21 in 10.0 mi South 12.7 mph 18.4 mph N/A   Clear
4:53 PM 77.0 °F - 62.1 °F 60% 30.20 in 10.0 mi SSE 12.7 mph 16.1 mph N/A   Clear
5:53 PM 73.9 °F - 63.0 °F 68% 30.20 in 10.0 mi South 12.7 mph - N/A   Clear
6:53 PM 73.0 °F - 62.1 °F 68% 30.20 in 10.0 mi South 9.2 mph - N/A   Clear
7:53 PM 70.0 °F - 62.1 °F 76% 30.19 in 10.0 mi North - - N/A   Clear
8:53 PM 69.1 °F - 63.0 °F 81% 30.20 in 10.0 mi South 6.9 mph - N/A   Clear
9:53 PM 66.9 °F - 62.1 °F 84% 30.20 in 10.0 mi South 5.8 mph - N/A   Clear
10:53 PM 68.0 °F - 62.1 °F 81% 30.19 in 10.0 mi South 8.1 mph - N/A   Clear
11:53 PM 69.1 °F - 62.1 °F 78% 30.18 in 10.0 mi South 9.2 mph - N/A   Clear